Weather in Mirnyy

Russia / Ulyanovsk Oblast     54°22′01″N   48°43′42″E
temp.,
°C
wind,
m/s
gust,
m/s
humid.,
%
clouds,
%
prec.,
mm/h
press.,
hPa
HPBL,
m
18 april, sun
sun1801:00+8ene411560 0.0 1021266
04:00+6ne410672 0.0 1021201
07:00+6ne411655 0.0 1021308
10:00+11ene68455 0.0 1021741
13:00+14ene66360 0.0 10201232
16:00+15ene67340 0.0 10201560
19:00+13ene61046100 0.0 1021398
22:00+8ene8146573 0.0 1022524
19 april, mon
mon1901:00+6ene61264100 0.0 1023514
04:00+4ene61257100 0.0 1024419
07:00+3ene71367100 0.0 1024591
10:00+5ene81056100 0.0 1025860
13:00+8e81054100 0.0 10251218
16:00+8e81058100 0.0 10261208
19:00+6e7106797 0.0 10271036
22:00+6e61265100 0.0 10281086
20 april, tue
tue2001:00+5e51066100 0.0 1028688
04:00+3e6126438 0.0 1029358
07:00+3ese713565 0.0 1030630
10:00+6ese810420 0.0 1031992
13:00+9ese810360 0.0 10301344
16:00+10ese79300 0.0 10301581
19:00+8ese7113681 0.0 1028798
22:00+5ese61543100 0.0 1029496
21 april, wed
wed2101:00+4ese71550100 0.0 1028547
04:00+3se8175199 0.0 1028546
07:00+3se81752100 0.0 1027667
10:00+6se101741100 0.0 1026911
13:00+8sse91439100 0.0 10261100
16:00+7sse81452100 0.2 10261040
19:00+5sse81675100 0.6 1027867
22:00+5sse71584100 1.6 1027791
22 april, thu
thu2201:00+5sse71489100 1.4 1027683
04:00+5sse71391100 1.5 1027555
07:00+5sse61191100 0.0 1028572
10:00+5sse61091100 0.2 1029521
13:00+5sse61092100 0.5 1029587
16:00+6sse61088100 0.8 1030570
19:00+5sse61284100 0.3 1030622
22:00+4sse5989100 0.8 1030441